This is the latest recevied weather packets stored in our database for station/object W8RSN-13. If no packets are shown the sender has not sent any weather packets the latest 10 day(s).
| Time | Temp. | Humidity | Pressure | Rain* | Wind** | Luminosity | Snow |
|---|---|---|---|---|---|---|---|
| 1787918957 | 23.89° C | 66% | 1013.5 hPa | - | - | - | - |
| 1787918656 | 24.44° C | 66% | 1013.4 hPa | - | - | - | - |
| 1787918375 | 24.44° C | 64% | 1013.3 hPa | - | - | - | - |
| 1787918074 | 24.44° C | 66% | 1013.6 hPa | - | - | - | - |
| 1787917773 | 23.89° C | 63% | 1013.4 hPa | - | - | - | - |
| 1787917472 | 24.44° C | 67% | 1013.2 hPa | - | - | - | - |
| 1787917171 | 24.44° C | 68% | 1013.2 hPa | - | - | - | - |
| 1787916870 | 24.44° C | 69% | 1013.3 hPa | - | - | - | - |
| 1787916569 | 24.44° C | 68% | 1013.5 hPa | - | - | - | - |
| 1787916269 | 24.44° C | 69% | 1013.5 hPa | - | - | - | - |
| 1787915968 | 24.44° C | 68% | 1013.4 hPa | - | - | - | - |
| 1787915667 | 24.44° C | 67% | 1013.3 hPa | - | - | - | - |
| 1787915366 | 24.44° C | 67% | 1013.4 hPa | - | - | - | - |
| 1787915065 | 24.44° C | 68% | 1013.4 hPa | - | - | - | - |
| 1787914764 | 24.44° C | 68% | 1013.5 hPa | - | - | - | - |
| 1787914463 | 24.44° C | 68% | 1013.4 hPa | - | - | - | - |
| 1787914162 | 24.44° C | 68% | 1013.4 hPa | - | - | - | - |
| 1787913861 | 24.44° C | 67% | 1013.4 hPa | - | - | - | - |
| 1787913561 | 24.44° C | 66% | 1013.5 hPa | - | - | - | - |
| 1787913259 | 24.44° C | 69% | 1013.1 hPa | - | - | - | - |
| 1787912959 | 24.44° C | 69% | 1013.2 hPa | - | - | - | - |
| 1787912658 | 25° C | 68% | 1013.2 hPa | - | - | - | - |
| 1787912357 | 25° C | 67% | 1013.2 hPa | - | - | - | - |
| 1787912056 | 25.56° C | 67% | 1013.2 hPa | - | - | - | - |
| 1787911775 | 25° C | 67% | 1013.3 hPa | - | - | - | - |
* Rain since midnight (hover to see other rain measurements)
** Current wind speed in m/s (hover to see current wind gust speed)